Location: Foots Cray
(51.4000°N, 0.1167°E)
Time: 23:21:26
(UTC+00:00)

Cosmos 1536 - Pass Details

Date: 15 May 2026
Orbit: 482 x 500 km, 82.5° (Epoch: 6 June)

Event Time Altitude Azimuth Distance (km) Brightness Sun altitude
Rises 21:29:38 0° 359° (N) 2,571 7.2 -12.6°
Reaches altitude 10° 21:32:05 10° 15° (NNE) 1,688 5.9 -12.9°
Maximum altitude 21:35:04 23° 69° (ENE) 1,090 4.2 -13.1°
Enters shadow 21:36:50 17° 108° (ESE) 1,330 4.3 -13.3°
